User: anonymous
Location: Voyageurs National Park
(48.5020°N, 92.9292°W)
Time: 05:21:25
(UTC-05:00)
Language:

Terra - Orbit

View from above orbital plane
View from above orbital plane
View from above satellite
View from above satellite

Ground track
Ground track

The orbit data is extracted from the following two-line orbital elements,

1 25994U 99068A   14273.09779678  .00000595  00000-0  14217-3 0  6816
2 25994 098.2028 346.3398 0001524 086.8037 273.3352 14.57095378786342
Epoch (UTC): 30 September 2014 02:20:49
Eccentricity: 0.0001524
inclination: 98.2028°
perigee height: 701 km
apogee height: 703 km
right ascension of ascending node: 346.3398°
argument of perigee: 86.8037°
revolutions per day: 14.57095378
mean anomaly at epoch: 273.3352°
orbit number at epoch: 78634

The dashed part of the orbit path shows where the satellite is in the earth's shadow,  

DLR